CDT,Max TemperatureF,Mean TemperatureF,Min TemperatureF,Max Dew PointF,MeanDew PointF,Min DewpointF,Max Humidity, Mean Humidity, Min Humidity, Max Sea Level PressureIn, Mean Sea Level PressureIn, Min Sea Level PressureIn, Max VisibilityMiles, Mean VisibilityMiles, Min VisibilityMiles, Max Wind SpeedMPH, Mean Wind SpeedMPH, Max Gust SpeedMPH,PrecipitationIn, CloudCover, Events, WindDirDegrees
2013-10-1,79,64,50,61,56,46,97,77,52,29.97,29.87,29.84,10,10,3,17,6,24,0.00,0,,212
2013-10-2,75,59,43,53,46,38,98,66,27,30.12,30.04,29.97,10,9,0,7,2,,0.00,1,Fog,106
2013-10-3,73,64,54,67,61,42,99,86,57,29.98,29.90,29.84,10,8,1,17,4,16,0.04,6,Rain-Thunderstorm,156
2013-10-4,67,63,59,65,62,59,99,96,91,30.03,29.95,29.87,10,8,2,12,3,,0.29,6,Rain-Thunderstorm,94
2013-10-5,72,66,59,70,64,59,100,96,85,29.94,29.85,29.74,10,5,0,10,5,18,0.54,8,Fog-Rain-Thunderstorm,125
2013-10-6,59,52,45,58,43,38,96,73,50,29.77,29.72,29.67,10,10,7,12,6,18,0.08,6,Rain,230
2013-10-7,65,54,41,47,44,40,99,78,42,30.08,29.89,29.71,10,10,4,13,6,21,0.02,3,Rain,278
2013-10-8,74,56,38,50,44,37,99,69,37,30.15,30.11,30.08,10,10,10,15,3,22,0.00,0,,175
2013-10-9,72,58,44,50,46,41,93,68,33,30.23,30.17,30.13,10,10,10,13,4,17,0.03,0,,155
2013-10-10,73,56,40,52,47,40,100,74,39,30.17,30.11,30.05,10,8,0,9,2,,0.00,1,Fog,130
2013-10-11,74,62,50,57,52,48,98,74,49,30.06,30.00,29.93,10,9,5,15,5,23,0.00,3,,131
2013-10-12,68,56,43,60,50,36,90,70,40,30.15,29.98,29.91,10,10,7,15,7,22,0.03,4,Rain-Thunderstorm,203
2013-10-13,60,46,34,42,36,32,96,73,40,30.40,30.33,30.16,10,10,10,13,2,16,0.00,0,,312
2013-10-14,61,46,32,45,39,31,98,78,49,30.42,30.32,30.13,10,10,7,15,3,20,0.00,1,,97
2013-10-15,59,52,45,58,49,42,98,87,73,30.12,29.88,29.73,10,8,2,17,7,23,0.24,6,Rain,166
2013-10-16,54,50,46,49,46,42,97,87,76,29.92,29.84,29.77,10,9,3,12,8,18,0.00,8,,263
2013-10-17,51,44,36,45,41,35,97,87,63,29.91,29.85,29.81,10,9,3,9,2,,0.09,5,Rain,279
2013-10-18,48,40,33,43,37,32,97,84,71,29.93,29.86,29.79,10,10,5,15,4,20,0.00,5,,246
2013-10-19,52,44,35,39,36,32,95,83,49,29.90,29.79,29.72,10,10,10,13,2,28,0.00,4,Rain,226
2013-10-20,48,38,27,46,37,26,100,91,63,29.85,29.77,29.69,10,8,0,13,3,18,0.10,6,Fog-Rain,175
2013-10-21,45,38,31,43,30,22,91,71,54,29.93,29.87,29.73,10,10,10,17,9,23,0.00,7,,268
2013-10-22,44,34,24,30,26,22,89,69,49,29.95,29.92,29.89,10,10,10,8,5,,0.00,2,,281
2013-10-23,43,35,27,29,25,21,90,69,43,29.99,29.96,29.92,10,10,7,14,6,22,0.00,5,,295
2013-10-24,43,34,27,28,25,23,89,68,47,30.27,30.13,29.99,10,10,10,15,7,21,0.00,5,,294
2013-10-25,50,36,22,31,25,19,92,64,41,30.34,30.19,29.90,10,10,10,23,6,33,0.00,3,,222
2013-10-26,50,44,38,35,29,25,69,54,43,30.05,29.90,29.77,10,10,10,23,14,33,0.00,5,,273
2013-10-27,53,38,24,31,28,21,93,68,38,30.04,29.97,29.89,10,10,10,17,4,22,0.00,0,,222
2013-10-28,43,38,32,33,31,27,86,73,65,30.41,30.28,30.03,10,10,10,14,7,24,0.00,6,,43
2013-10-29,52,44,36,42,37,28,96,78,61,30.39,30.26,30.13,10,9,5,12,7,16,0.00,4,,93
2013-10-30,54,48,42,53,48,40,100,94,88,30.12,29.99,29.74,7,4,0,14,4,20,0.00,7,Fog,120
2013-10-31,60,52,43,60,54,40,99,96,88,29.74,29.42,29.23,10,7,2,16,6,23,0.96,8,Rain,220